DW9174 Weather Reports


Display with metric or nautical units.
time (UTC)temp
F
wind
direction
speed
MPH
gust
MPH
rain 1hr
in
rain 24hr
in
rain mn
in
humidity
%
barometer
mb
20260509223412 72 200 0.0 0.0 0.00 0.00 0.00 56 1008.2
20260509222409 72 199 0.0 0.0 0.00 0.00 0.00 55 1008.2
20260509215153 73 265 0.0 4.0 0.00 0.00 0.00 55 1008.2
20260509214118 73 132 0.0 2.0 0.00 0.00 0.00 53 1008.1
20260509213044 72 342 1.0 3.0 0.00 0.00 0.00 54 1008.1
20260509212058 72 300 0.0 1.0 0.00 0.00 0.00 57 1008.2
20260509211112 73 303 2.0 5.0 0.00 0.00 0.00 54 1008.2
20260509210047 72 294 1.0 5.0 0.00 0.00 0.00 55 1008.2
20260509205019 73 116 0.0 3.0 0.00 0.00 0.00 54 1008.2
20260509204022 72 160 0.0 0.0 0.00 0.00 0.00 55 1008.3
20260509200711 73 239 1.0 2.0 0.00 0.00 0.00 55 1008.3
20260509195637 73 284 0.0 5.0 0.00 0.00 0.00 55 1008.4
20260509194605 73 227 0.0 5.0 0.00 0.00 0.00 53 1008.4
20260509193607 72 101 0.0 6.0 0.00 0.00 0.00 53 1008.5
20260509192548 72 108 0.0 6.0 0.00 0.00 0.00 56 1008.6
20260509191559 70 145 0.0 0.0 0.00 0.00 0.00 57 1008.7
20260509190605 70 126 1.0 7.0 0.00 0.00 0.00 52 1008.8
20260509185534 70 134 1.0 4.0 0.00 0.00 0.00 57 1009.0
20260509184555 70 117 0.0 4.0 0.00 0.00 0.00 55 1009.2
20260509183557 69 115 1.0 6.0 0.00 0.00 0.00 54 1009.3
20260509182609 69 63 0.0 4.0 0.00 0.00 0.00 56 1009.4
20260509180423 68 121 1.0 6.0 0.00 0.00 0.00 57 1009.7
20260509175440 67 328 0.0 1.0 0.00 0.00 0.00 60 1009.9
20260509174435 67 45 0.0 3.0 0.00 0.00 0.00 60 1010.0
20260509173446 66 36 0.0 0.0 0.00 0.00 0.00 62 1010.3
20260509172447 66 5 0.0 0.0 0.00 0.00 0.00 61 1010.6
20260509171454 65 49 0.0 0.0 0.00 0.00 0.00 62 1010.7
20260509170426 66 51 0.0 0.0 0.00 0.00 0.00 60 1010.9
20260509165445 66 51 0.0 1.0 0.00 0.00 0.00 60 1011.0
20260509164420 67 85 0.0 4.0 0.00 0.00 0.00 59 1010.8
20260509163416 67 348 0.0 0.0 0.00 0.00 0.00 60 1010.6
20260509162350 67 155 0.0 3.0 0.00 0.00 0.00 61 1010.4
20260509161320 67 125 0.0 0.0 0.00 0.00 0.00 62 1010.5
20260509160306 67 47 0.0 3.0 0.00 0.00 0.00 61 1010.8
20260509155253 67 315 0.0 3.0 0.00 0.00 0.00 61 1010.9
20260509154228 66 136 1.0 5.0 0.00 0.00 0.00 60 1010.9
20260509151022 65 129 0.0 3.0 0.00 0.00 0.00 59 1011.0
20260509150000 64 61 0.0 2.0 0.00 0.00 0.00 63 1011.1
20260509143833 61 9 0.0 1.0 0.00 0.00 0.00 64 1011.3
20260509142837 60 315 0.0 1.0 0.00 0.00 0.00 65 1011.3
20260509141852 60 273 0.0 4.0 0.00 0.00 0.00 65 1011.4
20260509140827 60 181 0.0 0.0 0.00 0.00 0.00 69 1011.5
20260509135824 59 130 0.0 0.0 0.00 0.00 0.00 68 1011.2
20260509133603 59 142 0.0 1.0 0.00 0.00 0.00 70 1010.9
20260509132619 59 226 0.0 1.0 0.00 0.00 0.00 70 1011.0
20260509131637 59 152 0.0 0.0 0.00 0.00 0.00 71 1011.2
20260509130637 58 121 0.0 0.0 0.00 0.00 0.00 74 1011.3
20260509125657 58 118 0.0 1.0 0.00 0.00 0.00 76 1011.2
20260509123546 57 86 0.0 0.0 0.00 0.00 0.00 79 1011.0
20260509122518 56 306 0.0 1.0 0.00 0.00 0.00 78 1011.0
20260509120409 55 117 0.0 2.0 0.00 0.00 0.00 80 1011.2
20260509115402 55 105 0.0 0.0 0.00 0.00 0.00 80 1011.2
20260509114354 54 105 0.0 0.0 0.00 0.00 0.00 82 1011.1
20260509113322 54 101 0.0 1.0 0.00 0.00 0.00 84 1011.0
20260509110027 52 139 0.0 0.0 0.00 0.00 0.00 85 1010.8
20260509104956 52 139 0.0 0.0 0.00 0.00 0.00 84 1010.8
20260509103955 52 139 0.0 0.0 0.00 0.00 0.00 83 1010.6
20260509101750 52 138 0.0 0.0 0.00 0.00 0.00 81 1010.6
20260509100727 53 138 0.0 0.0 0.00 0.00 0.00 79 1010.5
20260509095740 53 138 0.0 0.0 0.00 0.00 0.00 75 1010.6
20260509094745 53 138 0.0 0.0 0.00 0.00 0.00 73 1010.4
20260509093807 53 138 0.0 0.0 0.00 0.00 0.00 72 1010.5
20260509092735 53 138 0.0 0.0 0.00 0.00 0.00 72 1010.4
20260509090541 54 136 0.0 0.0 0.00 0.00 0.00 71 1010.4
20260509085520 54 123 0.0 0.0 0.00 0.00 0.00 71 1010.5
20260509084528 54 136 0.0 0.0 0.00 0.00 0.00 71 1010.6
20260509082315 54 118 0.0 1.0 0.00 0.00 0.00 71 1010.7
20260509081310 54 159 0.0 1.0 0.00 0.00 0.00 72 1010.7
20260509080317 54 150 0.0 0.0 0.00 0.00 0.00 73 1010.7
20260509075246 54 136 0.0 0.0 0.00 0.00 0.00 74 1010.7
20260509074235 53 126 0.0 1.0 0.00 0.00 0.00 74 1010.7
20260509073253 53 128 0.0 2.0 0.00 0.00 0.00 75 1010.7
20260509072249 53 126 0.0 3.0 0.00 0.00 0.00 78 1010.6
20260509071223 51 119 0.0 3.0 0.00 0.00 0.00 82 1010.7
20260509070221 50 148 0.0 0.0 0.00 0.00 0.00 86 1010.8
20260509065236 49 233 0.0 0.0 0.00 0.00 0.00 87 1010.9
20260509064238 49 242 0.0 0.0 0.00 0.00 0.00 88 1011.0
20260509063209 49 242 0.0 0.0 0.00 0.00 0.00 87 1011.1
20260509062229 49 242 0.0 0.0 0.00 0.00 0.00 87 1011.1
20260509061239 49 242 0.0 0.0 0.00 0.00 0.00 88 1011.2
20260509055118 49 242 0.0 0.0 0.00 0.00 0.00 89 1011.2
20260509051848 48 242 0.0 0.0 0.00 0.00 0.00 89 1011.5
20260509045758 47 242 0.0 0.0 0.00 0.00 0.00 87 1011.4
20260509044742 47 242 0.0 0.0 0.00 0.00 0.00 87 1011.6
20260509042600 47 242 0.0 0.0 0.00 0.00 0.00 86 1011.6
20260509041558 47 242 0.0 0.0 0.00 0.00 0.00 85 1011.6
20260509034314 48 242 0.0 0.0 0.00 0.00 0.00 83 1011.7
20260509033306 48 242 0.0 0.0 0.00 0.00 0.00 81 1011.7
20260509032244 49 242 0.0 0.0 0.00 0.00 0.00 81 1011.7
20260509031300 49 242 0.0 0.0 0.00 0.00 0.00 81 1011.7
20260509030321 49 242 0.0 0.0 0.00 0.00 0.00 82 1011.8
20260509025319 49 242 0.0 0.0 0.00 0.00 0.00 81 1011.9
20260509024251 50 242 0.0 0.0 0.00 0.00 0.00 80 1011.9
20260509023253 50 242 0.0 0.0 0.00 0.00 0.00 79 1012.0
20260509022246 51 242 0.0 0.0 0.00 0.00 0.00 79 1011.9
20260509021231 51 242 0.0 0.0 0.00 0.00 0.00 77 1011.9
20260509015025 53 242 0.0 0.0 0.00 0.00 0.00 77 1011.9
20260509014041 54 242 0.0 0.0 0.00 0.00 0.00 75 1011.9
20260509011840 55 242 0.0 0.0 0.00 0.00 0.00 75 1011.8
20260509010853 57 315 0.0 0.0 0.00 0.00 0.00 73 1011.7
20260509005834 58 315 0.0 0.0 0.00 0.00 0.00 69 1011.7
20260509004807 59 315 0.0 0.0 0.00 0.00 0.00 70 1011.6
20260509003828 60 315 0.0 0.0 0.00 0.00 0.00 68 1011.6
20260509002802 60 315 0.0 0.0 0.00 0.00 0.00 69 1011.5
20260509001729 61 315 0.0 0.0 0.00 0.00 0.00 70 1011.5
20260509000715 62 315 0.0 0.0 0.00 0.00 0.00 69 1011.4
20260508235733 63 315 0.0 0.0 0.00 0.00 0.00 69 1011.3
20260508234715 65 315 0.0 0.0 0.00 0.00 0.00 58 1011.3
20260508233707 65 315 0.0 0.0 0.00 0.00 0.00 51 1011.2
20260508232707 66 315 0.0 0.0 0.00 0.00 0.00 51 1011.1
20260508231711 66 315 0.0 0.0 0.00 0.00 0.00 51 1011.1
20260508230653 66 315 0.0 0.0 0.00 0.00 0.00 47 1011.1
20260508225656 67 315 0.0 0.0 0.00 0.00 0.00 47 1011.0
20260508224707 67 315 0.0 3.0 0.00 0.00 0.00 44 1011.0